TimeCST,TemperatureF,Dew PointF,Humidity,Sea Level PressureIn,VisibilityMPH,Wind Direction,Wind SpeedMPH,Gust SpeedMPH,PrecipitationIn,Events,Conditions,WindDirDegrees,DateUTC
12:15 AM,30.2,26.6,86,29.57,3.0,North,16.1,-,N/A,Snow,Light Snow,360,2013-01-30 06:15:00
12:35 AM,30.2,26.6,86,29.57,3.0,North,17.3,24.2,N/A,Snow,Light Snow,360,2013-01-30 06:35:00
12:55 AM,28.4,24.8,86,29.58,7.0,North,15.0,-,N/A,Snow,Light Snow,10,2013-01-30 06:55:00
1:15 AM,28.4,24.8,86,29.54,3.0,North,19.6,28.8,N/A,Snow,Light Snow,10,2013-01-30 07:15:00
1:35 AM,28.4,24.8,86,29.57,2.5,North,15.0,19.6,0.01,Snow,Light Snow,360,2013-01-30 07:35:00
1:55 AM,28.4,24.8,86,29.57,3.0,North,20.7,26.5,0.03,Snow,Light Snow,10,2013-01-30 07:55:00
2:15 AM,28.4,24.8,86,29.59,3.0,North,20.7,24.2,N/A,Snow,Light Snow,350,2013-01-30 08:15:00
2:35 AM,26.6,23.0,86,29.58,1.8,North,24.2,28.8,N/A,Snow,Light Snow,350,2013-01-30 08:35:00
2:55 AM,26.6,21.2,80,29.60,1.5,NNW,20.7,32.2,0.01,Snow,Light Snow,340,2013-01-30 08:55:00
3:15 AM,26.6,21.2,80,29.61,1.8,North,16.1,23.0,N/A,Snow,Light Snow,350,2013-01-30 09:15:00
3:35 AM,26.6,21.2,80,29.62,2.0,NNW,16.1,25.3,N/A,Snow,Light Snow,340,2013-01-30 09:35:00
3:55 AM,24.8,21.2,86,29.62,1.5,North,17.3,23.0,N/A,Snow,Light Snow,350,2013-01-30 09:55:00
4:15 AM,24.8,21.2,86,29.62,1.0,NNW,25.3,29.9,N/A,Snow,Snow,340,2013-01-30 10:15:00
4:35 AM,24.8,19.4,80,29.63,0.5,NNW,18.4,28.8,0.01,Snow,Snow,340,2013-01-30 10:35:00
4:55 AM,23.0,19.4,86,29.64,1.2,NNW,23.0,28.8,0.01,Snow,Light Snow,340,2013-01-30 10:55:00
5:15 AM,23.0,19.4,86,29.64,1.8,NNW,15.0,27.6,N/A,Snow,Light Snow,340,2013-01-30 11:15:00
5:55 AM,21.2,17.6,86,29.64,1.5,NNW,27.6,34.5,N/A,Snow,Light Snow,340,2013-01-30 11:55:00
6:15 AM,21.2,17.6,86,29.65,1.2,NNW,19.6,26.5,N/A,Snow,Light Snow,330,2013-01-30 12:15:00
6:35 AM,21.2,17.6,86,29.66,0.8,NNW,21.9,34.5,N/A,Snow,Snow,340,2013-01-30 12:35:00
6:55 AM,21.2,17.6,86,29.66,1.0,NNW,18.4,33.4,N/A,Snow,Light Snow,340,2013-01-30 12:55:00
7:15 AM,21.2,17.6,86,29.67,1.8,NNW,21.9,28.8,N/A,Snow,Light Snow,340,2013-01-30 13:15:00
7:35 AM,21.2,15.8,80,29.67,2.0,NNW,20.7,32.2,N/A,Snow,Light Snow,330,2013-01-30 13:35:00
7:55 AM,21.2,17.6,86,29.69,2.0,NW,18.4,25.3,N/A,Snow,Light Snow,320,2013-01-30 13:55:00
8:15 AM,21.2,15.8,80,29.70,3.0,NNW,18.4,26.5,N/A,Snow,Light Snow,330,2013-01-30 14:15:00
8:35 AM,21.2,15.8,80,29.71,3.0,NNW,20.7,-,N/A,Snow,Light Snow,330,2013-01-30 14:35:00
8:55 AM,21.2,15.8,80,29.72,4.0,NW,18.4,-,N/A,,Haze,320,2013-01-30 14:55:00
9:15 AM,21.2,17.6,86,29.73,1.5,NW,15.0,24.2,N/A,Snow,Light Snow,320,2013-01-30 15:15:00
9:35 AM,21.2,15.8,80,29.74,2.0,NNW,17.3,31.1,N/A,Snow,Light Snow,330,2013-01-30 15:35:00
9:55 AM,23.0,15.8,74,29.75,4.0,NW,15.0,23.0,N/A,Snow,Light Snow,320,2013-01-30 15:55:00
10:15 AM,21.2,15.8,80,29.76,1.8,NNW,20.7,32.2,N/A,Snow,Light Snow,340,2013-01-30 16:15:00
10:35 AM,23.0,12.2,63,29.77,3.0,NW,18.4,28.8,N/A,,Haze,320,2013-01-30 16:35:00
10:55 AM,23.0,12.2,63,29.77,7.0,NW,18.4,25.3,N/A,,Scattered Clouds,320,2013-01-30 16:55:00
11:15 AM,23.0,12.2,63,29.77,5.0,NW,18.4,28.8,N/A,,Haze,320,2013-01-30 17:15:00
11:35 AM,24.8,12.2,59,29.77,5.0,NW,19.6,28.8,N/A,,Haze,320,2013-01-30 17:35:00
11:55 AM,23.0,12.2,63,29.77,4.0,NW,20.7,26.5,N/A,,Haze,320,2013-01-30 17:55:00
12:15 PM,24.8,12.2,59,29.77,4.0,NW,16.1,28.8,N/A,,Haze,320,2013-01-30 18:15:00
12:35 PM,24.8,12.2,59,29.77,5.0,NNW,19.6,25.3,N/A,,Haze,340,2013-01-30 18:35:00
12:55 PM,24.8,12.2,59,29.77,7.0,NW,19.6,24.2,N/A,,Mostly Cloudy,320,2013-01-30 18:55:00
1:15 PM,24.8,12.2,59,29.77,7.0,NW,20.7,26.5,N/A,,Overcast,320,2013-01-30 19:15:00
1:35 PM,24.8,14.0,64,29.78,7.0,NW,17.3,26.5,N/A,Snow,Light Snow,310,2013-01-30 19:35:00
1:55 PM,23.0,15.8,74,29.79,4.0,NW,19.6,27.6,N/A,Snow,Light Snow,310,2013-01-30 19:55:00
2:15 PM,24.8,12.2,59,29.79,10.0,NW,12.7,25.3,N/A,,Mostly Cloudy,320,2013-01-30 20:15:00
2:35 PM,23.0,12.2,63,29.79,10.0,NW,18.4,27.6,N/A,Snow,Light Snow,310,2013-01-30 20:35:00
2:55 PM,23.0,12.2,63,29.80,7.0,NW,18.4,24.2,N/A,Snow,Light Snow,310,2013-01-30 20:55:00
3:15 PM,23.0,12.2,63,29.81,10.0,NW,15.0,25.3,N/A,,Overcast,310,2013-01-30 21:15:00
3:35 PM,23.0,10.4,59,29.81,10.0,NW,15.0,25.3,N/A,,Overcast,320,2013-01-30 21:35:00
3:55 PM,23.0,10.4,59,29.81,7.0,NW,17.3,21.9,N/A,,Overcast,310,2013-01-30 21:55:00
4:15 PM,23.0,12.2,63,29.82,10.0,NW,15.0,21.9,N/A,,Overcast,320,2013-01-30 22:15:00
4:35 PM,23.0,12.2,63,29.83,10.0,WNW,12.7,19.6,N/A,Snow,Light Snow,300,2013-01-30 22:35:00
4:55 PM,23.0,10.4,59,29.84,10.0,NW,13.8,23.0,N/A,,Overcast,310,2013-01-30 22:55:00
5:15 PM,21.2,12.2,68,29.85,10.0,NW,9.2,19.6,N/A,Snow,Light Snow,310,2013-01-30 23:15:00
5:35 PM,21.2,10.4,63,29.85,10.0,NW,12.7,18.4,N/A,,Overcast,310,2013-01-30 23:35:00
5:55 PM,21.2,10.4,63,29.86,10.0,NW,8.1,18.4,N/A,,Overcast,320,2013-01-30 23:55:00
6:15 PM,21.2,10.4,63,29.86,10.0,NW,11.5,-,N/A,,Overcast,310,2013-01-31 00:15:00
6:35 PM,21.2,10.4,63,29.87,10.0,NW,8.1,-,N/A,,Overcast,310,2013-01-31 00:35:00
6:55 PM,21.2,10.4,63,29.87,10.0,WNW,6.9,-,N/A,,Mostly Cloudy,300,2013-01-31 00:55:00
7:15 PM,19.4,10.4,68,29.88,10.0,WNW,6.9,-,N/A,,Scattered Clouds,290,2013-01-31 01:15:00
7:35 PM,19.4,10.4,68,29.88,10.0,West,5.8,-,N/A,,Mostly Cloudy,280,2013-01-31 01:35:00
7:55 PM,19.4,10.4,68,29.88,10.0,West,4.6,-,N/A,,Overcast,270,2013-01-31 01:55:00
8:15 PM,17.6,8.6,68,29.89,10.0,West,4.6,-,N/A,,Overcast,260,2013-01-31 02:15:00
8:35 PM,17.6,10.4,73,29.89,10.0,West,4.6,-,N/A,,Overcast,260,2013-01-31 02:35:00
8:55 PM,17.6,10.4,73,29.89,10.0,West,3.5,-,N/A,,Overcast,260,2013-01-31 02:55:00
9:15 PM,19.4,10.4,68,29.89,10.0,WSW,3.5,-,N/A,,Mostly Cloudy,250,2013-01-31 03:15:00
9:35 PM,17.6,10.4,73,29.89,10.0,WSW,3.5,-,N/A,,Scattered Clouds,250,2013-01-31 03:35:00
9:55 PM,17.6,10.4,73,29.90,10.0,West,6.9,-,N/A,,Mostly Cloudy,280,2013-01-31 03:55:00
10:15 PM,17.6,10.4,73,29.90,10.0,West,6.9,-,N/A,,Overcast,270,2013-01-31 04:15:00
10:35 PM,17.6,10.4,73,29.90,10.0,WNW,8.1,-,N/A,,Overcast,290,2013-01-31 04:35:00
10:55 PM,17.6,10.4,73,29.91,10.0,NW,5.8,-,N/A,Snow,Light Snow,320,2013-01-31 04:55:00
11:15 PM,15.8,10.4,79,29.92,10.0,WNW,8.1,-,N/A,,Overcast,300,2013-01-31 05:15:00
11:35 PM,15.8,8.6,73,29.92,10.0,WNW,5.8,-,N/A,,Overcast,300,2013-01-31 05:35:00
11:55 PM,15.8,8.6,73,29.93,10.0,WNW,5.8,-,N/A,,Overcast,300,2013-01-31 05:55:00